View from above orbital plane
|
View from above satellite
|
Ground track
|
The orbit data is extracted from the following two-line orbital elements,
1 21153U 91019B 21061.35987348 .00000140 00000-0 12884-3 0 9990
2 21153 82.9218 275.1324 0028554 329.2497 203.6110 13.75975707504887
Epoch (UTC): | 02 March 2021 08:38:13 |
Eccentricity: | 0.0028554 |
inclination: | 82.9218° |
perigee height: | 957 km |
apogee height: | 999 km |
right ascension of ascending node: | 275.1324° |
argument of perigee: | 329.2497° |
revolutions per day: | 13.75975707 |
mean anomaly at epoch: | 203.6110° |
orbit number at epoch: | 50488 |
The dashed part of the orbit path shows where the satellite is in the earth's shadow,
|
|